Powrót do katalogu

ELECTRON KICK STAGE R/B

AktywnyVLEO
NORAD 65973·ROCKET BODY·🇺🇸 United States

Wystrzelony Oct 14, 2025 z Rocket Lab Launch Complex 1

Loading…

Następne Przeloty (najbliższe 24 godziny)

TLE

ŚwieżeSource: Space-Track

Epoka: Sep 14, 2026, 01:25 UTC

1 65973U 25229C   26257.05914596  .00003812  00000-0  26316-3 0  9996
2 65973  41.9813 152.6901 0040861 273.7427  85.8729 15.06349561 50377

Śledź ELECTRON KICK STAGE R/B w czasie rzeczywistym z AllMySat

Download on the App Store